Location: Asheville, NC
(35.6000°N, 82.5500°W)
Time: 17:03:33
(UTC-04:00)

Vanguard 2 Rocket - Pass Details

Date: 16 March 2018
Orbit: 553 x 3327 km, 32.9° (Epoch: 17 June)

Event Time Altitude Azimuth Distance (km) Brightness Sun altitude
Rises 22:20:32 0° 272° (W) 3,145 10.6 -32.8°
Reaches altitude 10° 22:22:44 10° 262° (W) 2,422 9.7 -33.2°
Enters shadow 22:26:32 32° 221° (SW) 1,695 8.3 -33.9°
